Tracking 19795 objects as of 17-Jul-2019
HD Live streaming from Space Station
objects crossing your sky now

ARIANE 5 DEB (SYLDA)

Track ARIANE 5 DEB (SYLDA) now!
10-day predictions


NORAD ID: 40877
Int'l Code: 2015-039D
Perigee: 252.3 km
Apogee: 27,210.6 km
Inclination: 4.9 °
Period: 472.8 minutes
Semi major axis: 20102 km
RCS: Unknown
Launch date: August 20, 2015
Source: France (FR)
Launch site: FRENCH GUIANA (FRGUI)

Note: This is SATELLITE DEBRIS
aabbcc
Your satellite tracking list
Your tracking list is empty




NASA's NSSDC Master Catalog

Two Line Element Set (TLE):
1 40877U 15039D   19196.29939877  .00017231  00000-0  28006-2 0  9996
2 40877   4.8722  93.1096 6705218 193.6546 130.3740  3.04599190 38685
Source of the keplerian elements: AFSPC